Lid_Strength_Index
4 4 3 4 3 4 5 6 6 6 6 6 6 6 7 6 6 6 6 6 6 6 7 7 7 7 7 7 7 7 7 7 7 7 7 5 4 4 3 3 4 4 5
5 5 5 4 4 5 5 6 6 6 6 5 5 5 6 6 6 6 6 6 6 6 7 8 8 8 8 7 8 7 8 7 7 8 8 9 7 5 5 5 5 6 6
7 8 7 6 5 5 6 6 6 6 6 5 5 5 5 6 6 7 7 7 6 6 7 8 8 8 8 8 8 8 8 9 8 7 8 10 11 10 7 7 6 7 7
8 8 7 7 6 6 6 6 6 6 5 5 5 6 7 7 6 7 7 7 7 7 7 7 7 8 7 8 8 8 8 9 9 8 7 8 9 11 11 9 8 8 8
10 8 7 6 5 6 6 6 6 5 5 6 6 6 7 8 7 7 8 7 7 7 7 7 7 8 8 8 9 9 9 9 10 10 9 10 10 9 10 12 11 10 9
9 7 6 5 6 6 6 6 6 6 6 7 7 7 8 8 8 8 8 8 8 7 7 6 7 8 8 9 9 9 9 9 10 10 10 10 11 11 12 13 12 12 10
8 7 7 6 6 6 6 6 6 7 7 7 7 7 8 8 8 8 8 8 8 8 7 7 8 8 9 9 9 10 10 10 11 10 10 10 10 10 10 11 12 12 11
8 8 7 7 7 6 6 7 7 7 7 7 7 7 7 7 8 8 8 8 8 7 7 7 8 9 9 10 10 10 11 11 11 11 10 10 10 10 10 10 11 12 12
8 8 7 7 7 7 6 7 7 7 7 7 7 7 7 8 8 8 7 7 7 7 8 8 8 9 10 11 11 11 11 11 11 11 10 10 10 9 10 10 10 11 13
8 8 8 7 7 6 6 6 6 7 7 7 7 7 7 8 8 7 8 8 8 8 8 8 9 10 11 11 11 11 10 10 10 10 10 10 10 10 10 10 9 10 11
10 10 10 9 8 8 7 7 7 7 7 7 7 8 8 8 8 8 8 8 8 8 9 9 10 10 11 11 11 11 10 10 10 10 10 10 9 10 10 10 10 10 10
10 10 10 10 9 9 8 8 8 8 8 8 8 8 8 8 9 10 10 11 11 11 11 11 11 10 10 10 10 10 9 10 10 10 9 9 8 10 10 10 10 10 10
10 10 10 10 10 10 9 9 9 9 9 9 9 10 10 10 11 11 11 11 12 12 11 10 10 10 10 10 10 10 10 10 10 10 10 10 9 10 10 10 10 10 9
10 11 11 11 11 10 10 10 10 10 10 11 12 13 14 14 14 14 14 13 13 13 13 13 12 12 12 12 11 11 11 11 10 10 9 9 9 9 9 9 10 9 10
11 11 11 12 12 12 13 13 13 13 13 14 14 14 14 14 14 14 13 13 13 13 13 12 12 12 12 11 12 11 11 11 11 10 9 9 8 6 6 7 9 9 9
11 11 12 14 14 15 14 14 14 14 14 15 14 14 14 14 13 13 12 12 12 12 12 12 12 12 10 7 6 7 10 10 10 10 10 9 7 6 3 3 2 3 7
12 13 13 14 14 15 15 15 15 15 15 15 14 14 13 13 13 12 12 12 12 12 12 12 12 12 11 7 6 5 8 10 10 9 9 8 7 5 6 4 2 2 1
12 13 13 14 15 15 15 15 15 15 14 14 14 13 13 13 12 12 13 13 13 13 13 12 11 11 10 6 6 5 8 9 9 8 7 7 7 6 5 5 6 5 5
13 13 13 14 15 15 15 15 15 15 14 14 14 13 13 13 13 14 14 13 13 13 12 11 11 11 11 7 6 6 8 8 8 7 6 6 6 4 2 4 5 6 5
12 13 14 14 15 15 15 15 15 15 15 14 13 13 13 13 14 14 14 13 13 12 11 11 11 9 10 8 7 5 7 8 8 7 7 4 4 2 1 3 5 7 6
12 13 14 15 15 15 15 15 15 15 14 13 13 13 13 13 13 13 13 13 13 12 12 12 11 11 10 8 5 5 6 6 6 7 7 5 3 2 1 1 3 4 3
13 14 15 15 15 14 15 15 16 14 14 13 13 14 13 13 12 13 13 12 13 13 13 12 11 9 8 6 5 4 4 4 6 5 5 4 2 1 1 1 1 2 2
14 13 13 14 14 15 15 16 15 14 14 14 14 14 14 13 12 13 13 13 12 13 12 11 10 9 8 7 5 4 4 3 4 3 2 1 1 1 2 2 2 2 3
14 13 15 16 16 15 14 15 14 14 14 15 15 14 14 13 13 12 12 12 13 12 11 10 10 9 8 7 6 6 5 3 3 3 3 2 1 1 2 2 3 3 3
14 14 15 15 15 15 15 14 14 14 15 15 14 14 13 13 13 12 12 11 10 9 8 8 8 8 8 7 4 4 5 4 4 3 5 5 5 5 5 5 4 4 5
15 15 15 15 15 14 14 14 14 14 14 15 14 14 13 13 12 13 12 8 6 5 5 5 6 6 4 4 3 3 3 3 2 5 6 7 6 6 6 6 6 6 5